User: anonymous   Login
Location: Coffee Creek Observatory
(38.8077°N, 94.7179°W)
Time: 09:08:29
(UTC-05:00)
Language:

Lacrosse 4 Rocket - Orbit

View from above orbital plane
View from above orbital plane
View from above satellite
View from above satellite

Ground track
Ground track

The orbit data is extracted from the following two-line orbital elements,

1 26474U 00047B   17293.85897560 +.00000153 +00000-0 +24408-4 0  9995
2 26474 067.9941 226.5813 0057065 190.2183 169.7805 14.95574750934093
Epoch (UTC): 20 October 2017 20:36:55
Eccentricity: 0.0057065
inclination: 67.9941°
perigee height: 541 km
apogee height: 620 km
right ascension of ascending node: 226.5813°
argument of perigee: 190.2183°
revolutions per day: 14.95574750
mean anomaly at epoch: 169.7805°
orbit number at epoch: 93409

The dashed part of the orbit path shows where the satellite is in the earth's shadow,  

DLR